Dansville, NY
on Wednesday, December 6, 2017

Wednesday
       
Previous Day Next Day
Daily Summary
 ActualAverageRecord
Temperature
Mean Temperature °F °C °F °C  
Max Temperature 39°F 4°C 40°F 4°C 70°F 21°C (1982)
Min Temperature 30°F -1°C 25°F -3°C 9°F -12°C (1969)
Degree Days
Heating Degree Days 30    
Moisture
Dew Point 17°F -8°C   
Average Humidity 47    
Maximum Humidity 57    
Minimum Humidity 33    
Precipitation
Precipitation 0.00 in / 0.00 cm in / cm in / cm ()
Wind
Wind Speed 8 mph / 13 km/h   
Max Wind Speed 12 mph / 19 km/h   
Max Gust Speed 23 mph / 37 km/h   
Visibility 10 miles / 16 kilometers   
Events     
Averages and records for this station are not official NWS values.
Key: T is trace of precipitation, MM is missing value
Source: NWS Daily Summary
Seasonal Weather Averages
Time(EST)TemperatureDew PointHumidity Pressure Visibility Wind DirectionWind SpeedGust SpeedPrecipitationEvents Conditions
12:54 AM 37.0°F 2.8°C 18.0°F -7.8°C 46% 29.93 in / 1013.3 hPa 10.0 miles / 16.1 kilometers Variable 6.9 mph / 11.1 km/h 19.6 mph / 31.5 km/h N/A   Overcast
1:54 AM 36.0°F 2.2°C 17.1°F -8.3°C 46% 29.94 in / 1013.7 hPa 10.0 miles / 16.1 kilometers SSW 10.4 mph / 16.7 km/h 20.7 mph / 33.3 km/h N/A   Overcast
2:54 AM 35.1°F 1.7°C 15.1°F -9.4°C 44% 29.94 in / 1013.9 hPa 10.0 miles / 16.1 kilometers SSW 11.5 mph / 18.5 km/h 18.4 mph / 29.6 km/h N/A   Overcast
3:54 AM 34.0°F 1.1°C 15.1°F -9.4°C 46% 29.94 in / 1013.7 hPa 10.0 miles / 16.1 kilometers SSW 6.9 mph / 11.1 km/h - N/A   Overcast
4:54 AM 34.0°F 1.1°C 15.1°F -9.4°C 46% 29.95 in / 1014.2 hPa 10.0 miles / 16.1 kilometers SSW 6.9 mph / 11.1 km/h 16.1 mph / 25.9 km/h N/A   Overcast
5:54 AM 33.1°F 0.6°C 14.0°F -10.0°C 46% 29.97 in / 1014.7 hPa 10.0 miles / 16.1 kilometers SW 11.5 mph / 18.5 km/h 19.6 mph / 31.5 km/h N/A   Overcast
6:54 AM 30.9°F -0.6°C 14.0°F -10.0°C 50% 29.97 in / 1014.9 hPa 10.0 miles / 16.1 kilometers SSW 10.4 mph / 16.7 km/h - N/A   Scattered Clouds
7:54 AM 30.9°F -0.6°C 14.0°F -10.0°C 50% 29.98 in / 1015.1 hPa 10.0 miles / 16.1 kilometers Variable 3.5 mph / 5.6 km/h - N/A   Clear
8:54 AM 32.0°F 0.0°C 12.0°F -11.1°C 44% 29.98 in / 1015.0 hPa 10.0 miles / 16.1 kilometers SSW 9.2 mph / 14.8 km/h - N/A   Clear
9:54 AM 34.0°F 1.1°C 9.0°F -12.8°C 35% 29.97 in / 1014.7 hPa 10.0 miles / 16.1 kilometers Variable 4.6 mph / 7.4 km/h - N/A   Clear
10:54 AM 36.0°F 2.2°C 9.0°F -12.8°C 33% 29.96 in / 1014.4 hPa 10.0 miles / 16.1 kilometers Variable 5.8 mph / 9.3 km/h 20.7 mph / 33.3 km/h N/A   Clear
11:54 AM 37.9°F 3.3°C 14.0°F -10.0°C 38% 29.94 in / 1013.9 hPa 10.0 miles / 16.1 kilometers Variable 6.9 mph / 11.1 km/h - N/A   Overcast
12:54 PM 37.0°F 2.8°C 17.1°F -8.3°C 44% 29.93 in / 1013.3 hPa 10.0 miles / 16.1 kilometers Variable 6.9 mph / 11.1 km/h 20.7 mph / 33.3 km/h N/A   Overcast
1:54 PM 39.0°F 3.9°C 19.0°F -7.2°C 45% 29.91 in / 1012.8 hPa 10.0 miles / 16.1 kilometers Variable 6.9 mph / 11.1 km/h - N/A   Overcast
2:54 PM 39.9°F 4.4°C 19.9°F -6.7°C 45% 29.91 in / 1012.9 hPa 10.0 miles / 16.1 kilometers SSW 8.1 mph / 13.0 km/h 23.0 mph / 37.0 km/h N/A   Mostly Cloudy
3:54 PM 37.9°F 3.3°C 21.0°F -6.1°C 51% 29.92 in / 1013.2 hPa 10.0 miles / 16.1 kilometers South 6.9 mph / 11.1 km/h 19.6 mph / 31.5 km/h N/A   Overcast
4:54 PM 37.0°F 2.8°C 21.0°F -6.1°C 52% 29.91 in / 1012.6 hPa 10.0 miles / 16.1 kilometers Variable 6.9 mph / 11.1 km/h - N/A   Scattered Clouds
5:54 PM 37.0°F 2.8°C 19.9°F -6.7°C 50% 29.91 in / 1012.7 hPa 10.0 miles / 16.1 kilometers South 8.1 mph / 13.0 km/h - N/A   Partly Cloudy
6:54 PM 37.0°F 2.8°C 21.0°F -6.1°C 52% 29.91 in / 1012.8 hPa 10.0 miles / 16.1 kilometers SSE 6.9 mph / 11.1 km/h - N/A   Overcast
7:54 PM 37.9°F 3.3°C 21.0°F -6.1°C 51% 29.91 in / 1012.7 hPa 10.0 miles / 16.1 kilometers South 6.9 mph / 11.1 km/h - N/A   Mostly Cloudy
8:54 PM 39.0°F 3.9°C 21.0°F -6.1°C 49% 29.92 in / 1013.1 hPa 10.0 miles / 16.1 kilometers North - - N/A   Overcast
9:54 PM 37.0°F 2.8°C 23.0°F -5.0°C 57% 29.92 in / 1013.2 hPa 10.0 miles / 16.1 kilometers Variable 4.6 mph / 7.4 km/h - 0.00 in / 0.0 cm   Mostly Cloudy
10:54 PM 37.9°F 3.3°C 19.9°F -6.7°C 48% 29.94 in / 1013.7 hPa 10.0 miles / 16.1 kilometers Variable 3.5 mph / 5.6 km/h - N/A   Overcast
11:54 PM 37.0°F 2.8°C 21.9°F -5.6°C 54% 29.94 in / 1013.8 hPa 10.0 miles / 16.1 kilometers Variable 5.8 mph / 9.3 km/h - N/A   Overcast